Weather History for KGMU - October, 2011

Change the Weather History Date:

Friday, October 14, 2011

  Actual Average Record
Temperature  
Mean Temperature 65 °F -  
Max Temperature 75 °F 69 °F 82 °F (2008)
Min Temperature 55 °F 50 °F 36 °F (2006)
Growing Degree Days 15 (Base 50)    
Moisture  
Dew Point 46 °F    
Average Humidity 56    
Maximum Humidity 94    
Minimum Humidity 22    
Precipitation  
Precipitation 0.00 in - - ()
Sea Level Pressure  
Sea Level Pressure 29.76 in    
Wind  
Wind Speed 9 mph (WSW)    
Max Wind Speed 16 mph    
Max Gust Speed 26 mph    
Visibility 10 miles    
Events      
Averages and records for this station are not official NWS values.
T = Trace of Precipitation, MM = Missing Value Source: NWS Daily Summary

Daily Weather History Graph

Daily Weather History Graph

Search for Another Location

Airport or City:

Trip Planner

Search our weather history database for the weather conditions in past years. The results will help you decide how hot, cold, wet, or windy it might be!

Date:

Astronomy

Oct. 14, 2011 Rise Set
Actual Time 7:34 AM EDT 6:56 PM EDT
Civil Twilight 7:08 AM EDT 7:21 PM EDT
Nautical Twilight 6:39 AM EDT 7:50 PM EDT
Astronomical Twilight 6:10 AM EDT 8:20 PM EDT
Moon 8:17 PM EDT (10/14) 9:53 AM EDT (10/14)
Length of Visible Light 12h 12m
Length of Day
11h 22m
Waning Gibbous, 94% of the Moon is Illuminated
Oct 14
Waning Gibbous
Oct 19
Last Quarter
Oct 26
New
Nov 2
First Quarter
Nov 10
Full

Hourly Weather History & Observations

Time (EDT) Temp. Dew Point Humidity Pressure Visibility Wind Dir Wind Speed Gust Speed Precip Events Conditions
12:53 AM 57.9 °F 55.0 °F 90% 29.65 in 10.0 mi West 6.9 mph - N/A   Overcast
1:39 AM 57.2 °F 55.4 °F 94% 29.67 in 10.0 mi West 8.1 mph - N/A   Scattered Clouds
1:53 AM 57.0 °F 55.0 °F 93% 29.65 in 10.0 mi West 9.2 mph - N/A   Scattered Clouds
2:53 AM 57.0 °F 55.0 °F 93% 29.64 in 10.0 mi West 6.9 mph - N/A   Partly Cloudy
3:53 AM 55.9 °F 54.0 °F 93% 29.63 in 10.0 mi West 6.9 mph - N/A   Clear
4:53 AM 55.9 °F 54.0 °F 93% 29.65 in 10.0 mi WSW 9.2 mph - N/A   Clear
5:53 AM 55.0 °F 53.1 °F 93% 29.68 in 10.0 mi West 6.9 mph - N/A   Clear
6:53 AM 55.0 °F 52.0 °F 89% 29.71 in 10.0 mi WSW 3.5 mph - N/A   Clear
9:53 AM 63.0 °F 52.0 °F 67% 29.78 in 10.0 mi West 6.9 mph - N/A   Clear
10:53 AM 68.0 °F 45.0 °F 43% 29.79 in 10.0 mi West 11.5 mph - N/A   Clear
11:53 AM 70.0 °F 45.0 °F 41% 29.80 in 10.0 mi West 13.8 mph 20.7 mph N/A   Clear
12:53 PM 73.0 °F 42.1 °F 33% 29.80 in 10.0 mi West 9.2 mph 26.5 mph N/A   Clear
1:53 PM 75.0 °F 34.0 °F 22% 29.78 in 10.0 mi WNW 15.0 mph 24.2 mph N/A   Clear
3:53 PM 75.9 °F 34.0 °F 22% 29.76 in 10.0 mi WNW 16.1 mph 24.2 mph N/A   Clear
4:53 PM 75.0 °F 35.1 °F 23% 29.77 in 10.0 mi West 16.1 mph 21.9 mph N/A   Clear
5:53 PM 73.9 °F 36.0 °F 25% 29.78 in 10.0 mi West 11.5 mph - N/A   Clear
6:32 PM 71.6 °F 41.0 °F 33% 29.80 in 2.0 mi WSW 10.4 mph - N/A   Haze
6:41 PM 69.8 °F 41.0 °F 35% 29.80 in 10.0 mi WSW 10.4 mph - N/A   Clear
6:53 PM 69.1 °F 42.1 °F 38% 29.80 in 10.0 mi WSW 9.2 mph - N/A   Clear
7:53 PM 66.9 °F 41.0 °F 39% 29.82 in 10.0 mi WSW 10.4 mph - N/A   Clear
8:53 PM 64.0 °F 42.1 °F 45% 29.83 in 10.0 mi WSW 8.1 mph - N/A   Clear
9:53 PM 63.0 °F 43.0 °F 48% 29.86 in 10.0 mi WSW 9.2 mph - N/A   Clear
10:53 PM 63.0 °F 43.0 °F 48% 29.87 in 10.0 mi WSW 10.4 mph - N/A   Clear
11:53 PM 63.0 °F 44.1 °F 50% 29.88 in 10.0 mi WSW 11.5 mph - N/A   Clear